RH
33 31 31 34 35 30 27 26 25 25 23 19 16 14 13 11 10 9 8 9 9 11 15 21 30 40 47 52 55 56 57 58 60 62 62 62 62 62 62 62 62 61 59 57 54 52 49 47 45 42 39 36 32 30 28 27 25 24 24 25 26 25 22 22 27 31 30 25 23 26 28 32 38 41 41 44 46 44 39 29 21 17 13 9 7
36 35 32 32 34 32 31 31 30 30 30 28 26 24 22 19 16 14 11 10 10 9 9 9 12 18 25 33 43 50 54 55 56 58 61 62 61 61 62 62 62 62 61 59 57 55 53 50 48 46 43 40 36 33 31 29 27 26 25 25 25 25 24 22 24 30 36 34 30 30 33 34 37 39 39 38 40 43 39 31 24 20 16 12 9
33 34 33 31 32 33 33 34 34 33 33 32 32 33 33 31 28 24 19 16 13 11 11 11 10 10 10 13 20 29 40 50 55 56 56 58 60 60 60 60 61 61 60 60 58 57 55 53 51 49 46 44 40 37 35 32 30 28 26 26 25 24 24 22 22 27 35 39 38 37 38 39 37 36 36 36 37 41 39 31 24 21 19 16 13
29 30 31 29 30 32 33 35 37 38 38 37 35 35 36 38 39 37 33 29 23 17 15 13 12 12 11 10 10 11 17 30 44 52 55 56 57 57 59 58 59 59 59 59 58 58 57 55 54 51 49 47 45 42 39 36 33 31 29 27 27 26 24 23 22 23 29 40 45 41 37 39 39 36 38 43 43 41 39 35 28 22 19 18 16
28 28 30 29 29 31 32 33 35 37 39 40 39 37 36 37 39 40 43 45 42 35 29 22 18 16 14 14 13 11 10 13 21 31 42 51 56 57 57 57 57 56 56 57 57 57 57 56 55 53 51 49 47 45 43 40 36 34 31 29 28 27 26 24 23 22 25 34 45 48 44 44 47 45 43 46 48 47 43 39 32 25 22 21 19
31 30 31 31 31 32 33 33 34 35 38 38 38 37 35 35 35 34 37 43 46 46 45 40 34 28 22 18 17 16 15 13 13 14 20 33 45 53 56 58 58 57 56 56 56 56 56 55 55 54 53 50 49 48 45 42 40 36 34 32 30 29 28 26 24 24 24 28 39 49 53 52 52 52 48 46 48 50 49 46 40 32 27 26 24
31 30 31 31 31 32 33 34 34 34 36 38 38 37 36 34 33 31 31 34 37 41 46 47 45 41 35 29 24 21 20 19 17 14 13 17 26 37 47 55 59 60 60 59 58 57 56 55 55 54 53 52 50 50 48 45 42 39 36 34 31 30 29 27 26 25 24 29 37 45 52 54 52 51 52 50 49 50 51 54 52 46 39 33 27
29 29 30 30 30 31 31 32 33 33 34 35 36 37 36 35 33 32 31 31 32 37 43 47 48 47 44 40 36 31 28 25 22 20 18 16 19 25 33 43 53 60 63 64 63 61 59 57 56 54 53 53 52 51 50 48 45 42 39 36 33 32 30 28 28 26 23 28 37 43 49 54 53 52 57 58 56 54 52 49 49 50 47 38 28
31 32 33 32 32 33 33 33 34 33 33 32 32 33 34 35 35 34 33 32 33 35 38 43 47 48 47 46 45 43 40 34 28 26 25 24 23 24 27 34 42 50 59 64 67 67 65 61 59 57 56 55 54 53 51 50 48 46 44 40 36 33 32 30 29 29 26 27 34 41 47 51 51 53 60 61 55 51 47 43 42 44 44 41 35
36 36 37 36 36 36 37 37 37 37 36 34 34 33 33 34 35 35 34 34 35 37 38 40 44 47 47 47 48 49 48 44 38 34 32 30 28 28 30 32 36 42 51 60 66 68 69 68 65 63 60 58 56 54 53 52 50 49 47 44 40 36 34 34 33 31 30 29 33 39 46 48 46 48 54 55 50 45 44 45 43 41 46 51 48
40 40 39 39 39 40 40 40 40 40 40 39 38 37 37 37 37 36 34 33 34 37 39 41 42 45 47 49 50 50 49 47 45 44 41 37 35 36 35 34 36 42 49 56 61 63 67 70 70 69 66 63 60 57 55 53 52 51 49 46 44 39 36 37 37 35 33 31 31 35 40 41 40 42 45 48 48 43 40 42 40 40 48 53 51
43 42 41 41 42 43 43 42 43 43 42 42 41 40 40 40 40 39 37 35 36 36 38 40 42 43 46 49 50 50 49 46 46 52 55 51 47 47 46 45 44 47 51 54 57 59 63 67 70 72 71 69 66 62 59 56 54 53 52 49 47 44 39 37 37 37 36 35 33 34 35 34 33 37 40 42 44 41 37 38 36 37 44 44 41
43 43 44 45 45 46 46 46 46 45 45 45 45 45 45 46 46 45 43 41 41 41 40 41 43 43 46 50 49 48 49 47 49 57 62 60 56 54 55 56 54 51 51 54 56 58 61 65 67 69 70 71 71 68 64 62 58 56 55 54 52 49 45 41 37 35 35 35 35 34 31 29 29 32 35 36 38 37 36 38 36 34 38 38 32
44 44 45 47 47 48 49 49 49 48 48 48 49 49 49 50 51 52 52 52 51 50 49 48 48 47 49 52 52 50 47 45 50 61 65 64 63 61 59 60 61 59 56 55 58 59 60 63 66 65 65 69 72 71 68 66 64 62 61 60 59 56 53 49 44 39 36 34 35 34 30 28 26 26 30 32 32 31 31 35 34 32 32 31 26
46 47 48 48 49 49 51 51 51 51 50 51 52 53 54 55 57 58 60 60 59 58 58 56 55 53 52 52 54 54 45 37 44 59 68 70 70 68 64 64 65 67 64 60 61 61 59 61 65 65 64 66 68 69 71 69 67 67 67 67 66 64 62 58 53 49 44 39 36 34 31 29 27 25 26 28 27 25 24 25 27 27 29 32 33
50 50 50 51 51 52 53 53 53 53 53 55 58 59 60 60 61 62 64 65 64 63 63 62 61 60 58 57 59 59 49 38 38 47 60 71 74 70 68 69 70 72 71 66 64 62 60 62 66 66 66 65 62 64 70 72 70 69 70 72 73 71 68 65 61 57 53 47 42 38 34 32 30 27 25 25 26 26 26 29 32 32 36 43 50
53 53 53 54 54 54 54 54 55 56 58 60 62 62 63 64 65 67 70 71 70 70 69 68 67 66 64 63 65 66 61 52 46 46 53 67 74 71 69 70 72 73 72 69 65 62 60 60 63 66 67 66 62 61 68 74 74 73 73 75 78 79 76 71 69 65 61 56 51 46 42 38 35 33 28 25 25 26 30 36 39 39 42 50 63
56 56 56 56 55 55 57 58 61 64 66 68 70 70 71 72 72 73 76 77 77 77 75 74 72 71 71 69 69 72 70 64 61 62 65 71 75 74 72 72 73 75 74 71 67 63 59 56 58 64 67 66 62 62 67 73 76 76 77 78 81 84 81 77 76 73 68 64 60 55 52 49 44 39 34 28 25 25 29 34 37 42 44 46 58
58 58 56 56 57 59 63 66 68 71 74 76 77 76 76 76 76 77 80 81 81 80 79 79 78 76 76 75 74 76 76 71 71 75 77 78 78 76 76 75 74 74 73 72 69 65 62 58 56 58 61 61 62 63 66 72 77 77 77 81 85 85 82 80 81 78 73 69 65 61 59 56 51 45 40 34 29 26 26 28 32 39 42 42 53
57 58 58 59 62 64 67 71 72 74 77 77 76 77 77 79 80 79 80 80 80 81 81 82 83 81 80 79 77 77 77 75 75 77 79 80 81 80 80 78 75 71 69 68 68 66 64 62 58 55 55 57 60 63 64 69 76 78 78 82 85 82 80 82 82 80 77 74 71 67 64 60 55 51 46 41 37 31 28 29 31 34 35 40 52
58 61 63 65 68 69 72 76 77 78 79 79 80 81 81 82 81 79 80 80 80 81 81 81 82 81 79 78 78 77 78 78 78 79 80 82 83 84 83 81 76 72 69 67 67 67 64 62 59 56 53 52 57 64 68 68 73 77 79 80 79 77 78 83 83 80 81 80 77 74 71 67 63 58 52 49 47 41 35 33 33 33 33 37 47
64 68 71 73 77 79 79 81 82 82 82 82 83 84 82 82 81 81 82 82 81 82 82 81 81 81 78 78 77 76 75 76 77 78 79 81 83 85 85 83 79 75 71 67 65 64 63 61 58 56 53 50 50 60 72 75 76 79 80 77 74 75 79 83 84 84 86 86 84 84 81 77 73 69 63 59 57 52 45 40 39 38 36 34 37
73 77 81 83 85 85 85 85 85 85 86 85 86 86 85 84 84 83 83 83 83 83 83 82 82 82 80 78 76 73 71 72 74 75 76 78 80 81 82 82 82 80 77 71 67 64 61 60 57 54 53 50 47 53 67 76 78 81 82 79 75 75 80 84 86 89 91 90 91 91 88 85 82 79 76 71 68 65 58 50 46 43 42 40 37
84 87 89 89 88 88 88 89 89 88 88 87 87 87 87 85 85 84 83 83 84 84 83 82 82 82 82 79 77 75 72 70 71 74 75 76 78 80 80 79 80 80 78 74 70 66 63 60 57 53 51 50 46 48 58 69 73 76 82 83 80 79 82 86 88 90 93 93 94 92 91 89 86 85 83 80 79 79 72 62 56 52 49 46 42
90 91 92 91 91 91 91 91 91 89 87 87 88 88 88 87 86 85 82 82 84 84 83 83 82 81 81 80 78 76 75 74 74 74 74 73 74 76 76 75 76 75 74 74 72 68 67 65 61 56 53 51 49 52 60 68 71 72 77 83 86 86 86 87 88 90 92 93 92 91 90 89 88 86 86 85 85 88 84 75 69 65 58 53 48
92 93 93 93 92 93 92 91 91 89 88 88 87 87 86 85 84 83 82 82 82 82 81 80 80 80 79 78 76 75 74 73 71 70 68 67 67 67 66 67 70 71 70 68 68 70 72 73 71 67 64 61 59 61 66 71 72 73 75 80 87 90 90 89 89 90 90 89 89 89 88 88 88 87 87 88 91 92 90 84 79 74 65 59 59
94 94 95 95 94 94 93 93 91 90 88 85 84 83 82 83 83 84 83 82 80 80 79 78 78 79 78 77 75 74 74 72 70 69 67 66 65 64 64 67 71 73 71 65 63 65 67 69 72 74 73 71 68 66 68 72 76 78 79 81 86 90 91 91 91 89 87 86 85 85 85 85 87 89 90 92 94 95 92 86 82 79 71 64 67
95 96 95 96 95 94 93 92 91 89 86 83 83 83 83 83 83 83 82 81 81 81 81 81 81 81 81 81 80 79 79 77 76 74 73 72 71 72 73 75 78 81 81 78 74 71 67 66 71 75 76 77 77 76 78 80 81 82 83 84 87 90 92 93 93 91 88 84 83 83 84 85 89 92 94 96 98 97 94 88 83 82 78 72 76
97 97 96 96 95 93 92 90 89 87 86 85 85 85 84 85 88 89 88 88 89 90 91 92 91 90 90 90 90 90 89 86 84 83 83 82 82 81 83 84 84 84 85 85 86 88 84 78 76 77 78 80 83 85 88 89 86 85 85 86 88 92 95 97 98 95 90 86 83 83 85 87 92 95 97 98 99 98 95 91 87 85 82 78 80
99 99 97 96 94 92 91 90 89 89 89 89 88 87 87 88 93 96 96 95 94 96 98 98 96 95 96 97 96 94 92 90 88 88 87 85 82 80 79 80 81 80 80 81 85 91 92 88 83 79 79 81 84 87 90 91 90 89 88 89 90 93 95 98 100 97 92 87 85 84 86 90 94 98 99 99 100 100 97 94 90 88 86 83 83
101 100 98 96 93 91 92 93 92 92 91 91 91 90 89 88 88 90 93 94 94 95 97 98 97 98 99 99 97 94 90 88 87 86 86 84 83 83 82 80 79 78 78 80 85 88 89 90 88 86 84 83 85 88 90 90 91 90 90 91 93 93 94 97 99 98 93 90 87 86 89 92 96 99 99 99 100 101 100 98 95 91 88 85 84
102 101 99 95 93 94 96 95 94 94 93 92 91 91 90 88 85 84 85 88 91 94 96 98 99 98 98 98 98 96 92 89 87 87 87 86 84 84 84 83 82 80 78 79 84 87 88 87 87 87 89 89 88 89 90 89 89 90 90 92 94 95 95 96 98 97 94 91 90 90 92 94 96 97 98 99 100 101 101 100 98 94 91 88 86
103 102 99 97 96 98 98 97 96 95 93 93 92 90 90 89 87 85 84 84 87 91 93 95 96 97 97 95 94 95 93 89 88 86 85 83 82 81 81 81 81 80 79 80 83 86 88 88 86 84 86 89 89 89 89 90 90 90 90 92 93 94 95 96 98 98 95 92 92 93 95 95 96 97 98 98 99 99 99 100 98 95 93 90 88
104 102 100 99 100 101 99 97 97 95 93 93 91 90 90 89 88 88 88 86 86 86 85 86 88 91 94 93 92 93 92 91 89 87 85 84 83 81 81 82 80 78 78 81 83 84 85 86 86 84 83 87 90 90 90 92 92 91 91 92 92 93 96 98 99 98 96 94 94 95 96 96 95 96 98 99 98 98 98 98 98 96 94 91 90
103 100 99 100 101 101 99 98 97 96 94 94 92 92 92 91 91 92 91 90 90 87 84 83 82 84 89 93 94 93 93 92 91 90 88 88 87 86 88 90 88 85 82 81 82 82 80 81 84 85 84 86 90 91 91 92 93 92 92 93 93 95 98 100 100 98 96 96 96 96 96 96 95 94 95 96 97 97 97 97 97 96 94 91 91
102 100 100 100 100 100 100 99 98 97 97 96 96 95 94 94 93 93 92 91 90 89 87 84 81 82 87 91 90 89 90 91 93 93 92 92 92 93 94 94 93 91 88 84 82 81 79 77 80 82 83 84 87 90 90 90 91 92 92 93 95 98 100 100 100 99 98 97 96 96 95 95 95 94 95 95 95 95 96 96 96 96 94 92 91
102 100 100 100 100 101 102 100 98 98 98 97 96 94 93 93 92 91 91 91 89 88 88 86 85 85 85 83 82 85 89 91 92 93 93 92 93 93 93 91 92 93 93 89 85 82 79 75 74 78 84 88 88 88 89 89 91 93 94 96 97 99 99 98 97 97 96 96 96 96 95 96 97 96 95 95 95 95 95 96 95 95 94 91 91
101 100 101 101 101 103 104 102 100 98 97 96 95 94 93 92 92 91 91 90 89 89 88 87 87 88 86 82 81 84 88 90 91 91 91 89 89 91 90 89 90 93 93 91 88 83 79 74 72 78 87 89 86 86 89 92 94 96 96 98 98 98 98 98 97 96 96 95 96 97 97 97 99 97 95 94 94 95 96 96 95 95 96 94 93
100 100 101 101 101 104 104 102 100 98 96 95 94 93 93 92 92 91 90 90 90 90 89 88 88 88 87 85 84 85 89 92 92 92 91 89 88 90 91 90 91 92 93 93 91 86 79 74 74 80 86 85 84 88 92 93 96 98 98 98 100 100 99 99 99 98 97 97 98 99 99 98 98 97 94 93 93 94 96 96 94 94 95 94 93
100 100 101 100 101 103 102 101 99 97 96 95 95 94 94 93 92 92 92 92 92 91 90 91 91 89 88 89 90 93 96 98 97 95 95 94 93 94 95 95 96 97 96 96 95 90 85 81 81 83 84 83 86 92 95 95 97 98 98 98 99 99 99 99 99 99 99 99 99 99 98 98 98 97 95 94 94 94 95 95 94 94 93 93 93
101 101 100 100 102 102 101 100 99 96 96 97 96 95 95 93 92 93 93 93 93 93 93 93 92 91 92 94 96 98 99 99 99 98 97 97 98 99 99 99 99 100 100 99 96 91 87 86 84 83 84 87 91 94 96 97 98 98 99 99 99 100 100 100 99 99 99 99 99 99 98 98 98 97 96 96 96 96 95 95 95 95 94 93 94
100 101 101 101 103 102 101 100 99 98 98 97 95 95 95 94 93 94 94 93 93 93 93 93 92 92 92 94 96 98 98 98 98 98 98 99 100 100 100 100 100 100 100 100 97 91 87 86 85 86 88 92 95 96 97 99 99 99 100 100 99 100 100 100 99 99 99 99 98 98 98 99 98 97 97 97 97 97 97 96 96 96 95 95 95
100 100 101 103 103 102 101 101 100 99 99 98 97 97 96 95 94 94 94 94 94 93 92 93 93 92 92 93 96 98 99 98 98 99 99 100 100 100 100 100 100 100 100 100 100 99 96 95 96 97 97 98 98 98 99 100 99 99 99 99 98 99 99 99 100 99 99 99 100 99 99 99 98 97 98 98 97 97 97 97 97 97 96 96 95
100 101 103 103 102 101 101 101 100 99 99 99 98 97 96 95 95 95 94 93 93 92 92 93 92 91 92 94 97 98 99 99 100 100 100 100 100 100 100 100 100 100 101 100 100 100 100 100 100 100 100 100 100 101 101 100 99 97 97 97 98 98 98 98 99 99 97 98 100 100 99 99 98 98 99 98 96 97 98 98 97 98 98 97 97
100 103 104 103 101 101 101 100 99 100 99 98 98 97 96 96 96 95 94 92 91 91 92 93 93 93 94 96 98 99 100 100 100 100 100 100 100 100 100 100 101 101 101 101 100 100 100 100 100 100 100 100 100 100 101 101 100 98 97 96 96 97 98 98 98 97 96 97 98 99 99 99 98 99 98 97 96 97 97 98 98 98 98 98 97
98 101 103 103 102 102 101 100 100 100 99 99 99 98 96 97 97 96 94 94 93 94 94 95 95 96 96 97 99 99 100 101 101 101 101 101 100 100 100 101 101 101 100 101 101 100 100 100 100 100 101 101 101 101 101 101 99 98 97 95 95 96 98 98 97 96 96 96 96 98 99 99 98 99 98 97 97 97 97 97 97 96 97 97 96
93 96 101 103 103 103 102 101 101 101 100 100 100 99 98 98 98 97 97 96 96 96 96 97 98 98 97 98 99 99 100 100 100 100 101 100 100 101 101 100 100 101 100 100 101 101 101 101 101 100 101 101 101 101 101 100 99 98 97 96 96 96 96 97 97 97 97 97 96 97 98 98 99 100 99 98 98 97 96 97 96 94 94 95 95
88 90 95 98 100 103 104 102 102 102 101 101 101 100 99 100 99 98 98 99 98 98 98 98 98 99 99 100 100 100 101 102 101 101 101 101 100 101 101 100 100 100 100 100 100 100 100 101 101 101 101 101 101 101 102 101 100 99 97 96 96 95 96 97 98 98 99 99 98 98 98 98 99 100 98 97 97 96 96 97 96 95 95 94 93
85 85 89 91 94 98 101 102 104 104 102 101 101 100 100 100 100 99 100 100 99 99 100 99 100 101 101 101 101 101 102 102 102 101 101 101 100 101 100 100 100 100 100 100 101 100 100 101 101 100 101 102 101 102 102 101 100 100 99 99 98 97 96 96 97 99 100 100 99 98 98 98 98 98 97 95 95 94 94 95 95 95 96 94 90
81 81 85 86 88 91 93 96 101 104 103 103 103 101 100 101 100 99 101 102 102 102 102 101 101 103 103 103 102 102 102 102 102 101 101 101 101 101 101 100 100 100 100 100 100 100 100 100 100 100 101 101 101 101 102 102 102 102 101 101 102 101 100 100 100 100 100 99 98 97 96 95 96 96 96 95 94 93 94 95 95 95 97 97 93
78 78 81 81 82 85 87 90 95 100 103 104 104 102 101 101 100 100 101 101 102 103 104 104 104 104 104 104 104 103 103 103 103 103 103 102 103 103 102 102 102 102 102 101 101 101 101 100 100 100 100 100 100 101 101 101 101 101 101 101 102 101 101 102 102 100 98 96 95 94 93 93 95 96 96 95 93 92 92 93 93 93 94 95 94
Wind_Speed
14 14 14 14 14 16 17 18 19 18 18 19 20 21 21 21 22 22 22 23 23 23 23 23 22 21 20 19 19 19 20 20 20 20 20 20 21 22 24 25 26 28 29 31 31 32 33 34 35 36 35 35 37 39 39 39 38 37 36 32 31 32 31 26 14 8 14 23 28 32 34 35 36 38 39 39 39 37 35 35 36 36 35 32 29
12 12 13 12 12 13 14 14 15 16 16 18 19 19 20 20 20 21 22 22 22 22 22 22 21 21 21 20 20 19 19 19 20 20 21 22 22 23 23 24 26 28 28 30 31 31 33 34 34 34 33 35 37 38 38 39 37 38 39 37 34 33 32 30 22 12 11 18 24 29 32 35 36 38 39 41 41 39 37 36 37 37 37 35 32
13 12 12 13 11 11 12 12 14 15 15 16 17 18 19 19 20 21 21 22 22 22 22 22 22 21 21 20 20 20 20 19 19 19 20 22 23 24 24 25 26 28 29 30 31 31 32 33 33 32 32 34 37 37 37 37 37 37 38 39 37 36 35 33 28 20 16 18 25 30 33 36 38 38 39 41 40 39 38 38 38 38 37 36 34
15 14 14 15 13 13 14 14 15 16 16 16 17 18 18 18 18 20 20 20 21 21 21 22 22 23 22 22 21 21 21 20 19 18 18 20 22 24 25 25 27 28 29 30 30 31 32 33 32 31 31 34 36 36 35 35 35 36 37 38 38 38 37 36 33 28 22 20 25 32 36 38 38 38 38 38 38 39 38 38 38 38 38 37 35
15 16 15 16 17 16 17 18 19 19 19 19 20 21 21 20 19 21 20 20 20 20 20 21 22 23 23 24 23 22 22 21 20 20 19 19 20 22 24 25 27 28 29 29 30 30 32 33 32 30 30 34 35 34 33 34 34 35 37 37 37 37 36 37 37 33 27 24 26 29 33 35 34 34 37 38 36 35 35 36 37 37 37 37 35
14 15 15 17 18 18 19 21 22 22 22 23 24 26 26 26 26 26 25 24 25 24 23 23 23 23 24 24 24 24 23 22 21 21 21 20 20 21 23 24 26 27 29 29 30 31 32 33 32 31 31 34 35 32 31 33 35 36 37 37 36 35 34 36 37 34 31 29 29 29 31 33 31 31 36 39 37 35 34 33 34 35 36 36 35
17 18 18 19 20 21 22 24 25 25 24 24 25 27 28 29 30 31 30 29 29 29 28 28 27 26 26 25 25 26 26 25 23 23 22 21 22 23 24 25 26 27 28 29 30 31 32 32 32 32 33 34 35 33 31 33 34 36 37 37 34 33 33 34 35 34 31 28 28 30 32 33 32 31 34 37 36 34 33 30 29 32 34 35 36
19 20 21 22 23 24 26 28 29 30 30 29 29 30 30 30 31 32 32 31 31 30 30 31 30 29 28 27 27 26 26 27 27 26 24 23 23 24 25 26 27 28 28 29 29 30 31 32 32 32 33 35 35 34 33 33 33 34 36 36 34 33 33 33 31 32 31 27 26 29 30 31 31 28 30 33 31 29 33 33 32 33 34 34 35
18 20 22 23 24 25 26 28 30 32 33 33 34 34 34 34 34 33 33 32 31 31 31 31 31 31 30 30 29 27 26 27 28 28 27 25 25 25 26 28 29 30 31 30 29 29 30 31 32 33 34 35 36 36 36 36 35 36 36 34 33 33 33 32 30 30 29 26 23 25 25 26 29 29 30 35 36 35 37 36 31 31 33 32 32
18 20 22 23 24 25 26 28 29 31 32 32 34 35 36 37 37 37 36 34 32 31 31 31 31 32 32 32 31 29 28 29 29 28 27 27 27 28 28 29 30 32 33 33 32 31 30 30 31 32 33 34 36 36 37 38 39 40 38 35 34 35 34 32 31 30 29 25 23 24 22 22 30 35 36 39 41 37 37 36 30 28 28 24 23
18 21 22 23 24 24 26 27 29 30 31 31 32 34 35 37 38 39 39 38 36 34 33 33 33 33 32 32 32 32 32 32 31 29 28 28 29 30 30 31 32 32 34 34 34 33 32 31 31 31 31 32 34 35 36 38 40 41 41 38 37 38 37 35 33 32 30 27 27 27 25 24 31 37 37 37 39 37 37 37 33 30 27 21 16
18 21 23 24 25 25 26 28 29 30 31 31 32 34 34 35 37 39 39 39 39 38 38 37 36 36 34 33 34 34 35 35 34 31 29 29 31 31 32 33 33 33 34 35 36 35 34 33 32 31 31 31 31 32 34 36 38 39 41 41 41 42 42 40 38 36 33 31 28 28 30 30 31 35 37 37 38 37 36 37 36 34 31 27 21
19 22 24 25 26 27 27 28 29 30 31 32 32 33 33 34 36 37 38 38 39 40 41 41 40 40 38 36 37 37 37 37 36 32 31 32 32 33 34 35 35 35 35 35 36 36 35 34 34 33 32 31 30 31 32 33 34 35 37 40 42 44 45 45 44 42 40 37 33 33 36 34 31 35 40 40 39 38 36 35 36 35 32 32 34
22 25 26 27 27 28 28 28 29 30 31 31 32 33 33 34 35 35 35 35 37 39 40 41 42 42 41 40 41 42 42 43 40 34 32 34 34 34 35 37 37 37 36 36 36 37 37 36 35 35 35 32 30 30 31 31 30 31 32 35 40 43 45 46 46 46 45 44 41 41 41 37 34 37 40 41 42 43 42 39 38 39 38 38 39
23 25 26 27 27 27 27 27 29 30 32 32 32 32 32 33 34 35 34 34 36 37 38 40 41 42 43 43 43 45 48 50 47 39 33 32 33 34 36 37 38 38 38 38 37 37 38 37 37 37 36 35 33 32 30 29 29 29 31 34 37 39 41 44 46 47 46 46 46 46 43 39 37 37 38 43 48 47 45 45 44 43 40 34 29
23 24 24 25 26 26 26 28 30 32 32 31 31 31 31 33 34 35 35 36 38 38 39 40 40 42 43 43 43 45 50 54 53 49 42 35 32 34 36 37 38 38 39 39 38 38 38 38 38 38 38 37 37 36 33 31 29 30 32 33 34 35 38 42 44 45 46 46 47 47 45 41 39 36 37 42 47 45 38 35 36 35 29 21 18
22 22 23 24 25 26 27 28 30 31 31 31 32 32 33 35 35 35 35 37 38 39 40 41 41 42 44 44 44 45 49 52 54 54 50 42 36 36 36 37 38 39 39 40 39 38 39 39 38 38 39 38 37 37 36 32 31 32 33 33 33 33 37 41 41 41 44 47 48 47 46 44 42 41 39 41 45 45 37 30 32 33 26 16 13
21 22 23 25 26 27 27 28 29 30 31 32 33 34 35 36 36 35 35 36 38 40 40 41 43 44 44 45 45 44 47 52 52 51 50 46 42 41 39 37 37 38 39 40 40 39 40 41 40 39 39 39 38 38 36 33 32 33 34 33 31 33 38 39 35 34 37 41 44 46 45 43 42 42 42 42 46 49 46 39 37 35 28 20 15
23 24 26 27 28 28 27 28 29 30 31 33 33 35 36 36 36 35 35 36 38 40 40 40 42 44 43 44 45 44 46 50 50 47 46 45 44 43 40 37 37 38 39 39 39 39 39 41 41 41 41 41 40 39 38 36 34 35 35 32 29 34 40 36 30 29 32 35 39 41 40 39 38 39 40 42 45 51 53 48 44 41 34 28 23
27 28 29 29 29 29 29 29 30 31 32 34 35 35 34 34 34 35 35 36 37 38 39 39 41 44 44 44 45 46 46 49 50 48 46 46 46 45 42 40 39 40 40 39 38 38 38 39 40 41 41 41 41 40 40 39 37 37 37 32 31 37 38 31 27 30 33 34 36 37 37 36 35 35 36 38 42 49 53 50 48 48 42 33 30
30 30 31 31 31 31 30 29 30 31 31 32 33 34 32 32 34 35 35 35 36 37 39 39 40 43 45 45 45 46 46 47 49 49 48 48 48 47 45 44 44 43 43 41 39 38 38 39 39 40 41 41 40 39 39 40 39 39 39 37 39 43 35 27 29 34 33 33 34 35 36 36 35 35 36 38 41 46 50 48 46 49 46 38 36
30 31 32 33 32 32 31 30 30 31 31 31 32 34 34 33 33 34 33 34 35 37 38 38 37 40 44 43 43 44 45 44 45 47 48 48 49 49 49 49 49 47 44 43 42 41 42 41 40 40 40 40 40 38 37 38 39 40 42 43 46 46 36 29 30 32 31 33 33 33 33 35 35 36 37 38 40 43 46 46 44 44 44 41 40
31 32 33 33 33 33 33 32 31 31 31 31 32 34 35 33 33 32 31 32 33 33 34 34 34 36 38 40 39 40 41 42 41 43 45 45 46 48 49 50 51 49 46 44 44 44 44 43 42 41 40 40 41 40 38 37 37 38 42 45 47 46 39 32 30 30 31 32 31 30 32 34 35 35 37 38 38 39 41 42 41 40 40 38 37
31 32 33 34 34 35 34 33 32 32 32 32 32 33 33 32 31 30 29 29 30 30 30 30 30 31 32 34 35 34 35 38 39 38 39 41 42 44 46 47 48 49 48 47 47 46 46 45 44 43 42 41 43 43 41 39 38 38 40 43 44 43 38 33 31 30 29 29 29 30 32 33 34 34 35 35 34 34 36 37 37 37 38 37 34
32 33 34 34 35 35 36 35 34 33 33 32 31 32 31 30 30 29 28 28 28 28 28 27 28 28 28 29 32 32 31 33 35 34 35 38 40 41 43 43 44 45 45 46 46 47 47 47 46 44 43 43 43 43 40 39 38 38 39 40 41 39 36 34 33 30 28 28 29 29 30 32 33 33 32 31 31 32 33 33 32 33 34 33 30
32 33 33 34 34 35 36 36 34 33 32 30 30 30 30 30 30 29 29 29 28 28 29 27 26 27 27 28 31 32 31 32 34 34 35 37 39 41 42 43 43 43 42 42 43 44 44 45 44 43 41 41 40 38 37 37 38 38 39 39 38 37 35 33 32 30 29 29 29 29 29 29 30 30 29 30 32 33 34 33 31 31 32 31 28
32 32 33 34 35 34 34 34 34 32 32 31 31 31 30 30 30 29 29 30 29 29 29 29 27 27 28 29 31 33 33 34 35 36 37 38 40 40 40 40 41 41 40 39 38 39 41 42 42 40 38 37 37 37 37 37 35 34 35 36 36 36 35 35 34 33 32 31 30 29 28 27 27 29 31 32 34 34 35 36 34 32 32 32 30
31 32 33 34 33 32 32 32 33 33 33 32 31 31 30 30 31 31 31 32 32 31 30 30 29 30 30 31 31 32 32 32 32 34 36 37 38 37 36 36 39 39 38 36 36 35 36 36 36 35 33 32 32 33 34 34 33 32 32 32 34 35 36 35 34 34 34 32 30 28 27 26 28 30 32 32 32 33 34 36 35 34 34 33 31
30 32 32 32 32 31 31 32 33 33 34 33 32 31 31 31 32 33 33 33 33 34 34 33 32 33 33 32 31 29 29 29 30 34 37 38 39 39 37 36 38 40 41 41 40 37 31 29 28 27 26 26 26 27 28 29 30 30 32 32 32 33 33 32 31 32 33 32 30 28 27 27 28 29 30 30 30 32 34 34 34 33 33 31 28
31 31 30 30 31 32 32 33 33 33 33 32 32 32 32 31 31 33 34 34 34 36 38 39 39 39 38 36 35 34 35 37 39 40 41 42 42 43 42 41 40 41 43 44 42 36 29 26 25 24 24 22 22 22 24 25 26 27 29 31 30 30 31 30 30 31 31 30 30 29 29 28 27 28 29 29 28 29 31 32 32 32 32 28 24
30 30 30 30 32 33 33 33 32 31 31 31 31 32 32 31 31 32 34 35 36 37 38 40 42 42 41 41 41 41 42 44 43 42 41 41 41 41 41 41 41 41 42 42 37 31 26 23 21 21 21 20 20 20 22 23 24 24 25 26 27 28 29 29 30 30 30 30 30 30 30 30 28 28 28 28 27 28 28 28 29 29 29 27 24
29 30 31 32 33 33 32 31 30 30 30 30 30 30 30 30 30 31 32 33 34 36 37 38 40 40 41 41 42 42 41 41 41 40 39 39 39 38 38 39 38 39 40 39 34 28 24 21 19 18 18 18 18 19 20 21 22 22 22 21 23 26 28 29 30 31 31 30 29 29 30 30 30 29 28 28 28 27 26 26 27 27 26 24 23
29 31 33 33 32 31 30 29 29 28 29 29 29 29 29 28 28 30 33 33 33 34 35 36 37 38 39 40 40 41 41 41 40 39 39 38 38 37 37 37 36 36 36 33 28 24 22 21 20 20 20 19 19 19 20 21 22 22 22 22 23 25 28 29 29 29 29 29 29 29 30 30 30 29 29 30 30 29 28 27 27 27 25 23 22
29 31 33 33 31 30 29 29 28 28 28 28 29 29 29 29 29 30 31 31 30 31 34 35 36 36 37 37 38 39 40 40 39 38 37 37 37 36 36 36 35 34 33 31 26 22 21 22 22 23 23 23 21 19 20 21 22 22 23 23 23 24 25 26 26 27 28 27 28 29 30 31 32 31 29 29 28 27 27 27 27 26 25 23 22
29 31 32 31 29 29 29 29 28 29 29 29 29 29 30 31 31 30 29 28 27 29 33 36 38 39 38 37 37 37 38 38 37 37 36 35 36 37 35 30 27 26 27 27 26 24 23 22 22 22 24 24 20 18 18 19 21 22 22 22 21 21 23 24 26 27 27 27 28 29 30 32 33 33 32 31 29 27 25 26 26 26 25 24 23
29 30 30 29 28 28 29 29 29 30 29 29 30 30 30 30 30 29 29 29 29 29 31 35 38 40 40 38 36 34 35 35 35 35 36 36 37 36 30 23 20 21 22 24 26 26 24 24 23 24 26 26 23 20 20 20 22 23 22 22 21 21 23 25 25 26 26 27 28 30 31 32 33 33 32 30 29 28 26 26 26 25 24 24 23
29 29 29 29 28 28 29 30 30 30 30 30 30 29 29 30 29 29 29 29 29 29 31 33 35 34 36 39 38 33 33 34 35 34 35 34 33 30 26 23 22 21 20 23 25 24 23 24 25 25 27 25 23 22 22 22 23 23 22 22 23 24 26 27 29 30 29 29 30 31 32 32 32 33 31 28 26 26 25 25 26 24 23 25 24
28 28 28 29 29 28 28 28 29 29 29 30 29 28 28 29 29 29 28 28 29 29 29 31 30 28 30 36 39 36 34 33 33 32 32 31 29 26 24 24 23 20 19 21 24 24 22 23 24 25 25 23 21 20 20 21 21 22 22 23 23 25 26 27 29 31 30 29 29 30 30 29 29 31 31 28 26 26 25 26 26 24 22 24 23
29 29 30 29 28 26 26 26 27 28 28 28 28 28 28 28 27 27 27 27 28 28 28 28 28 28 29 33 36 35 31 28 26 27 29 30 30 27 25 25 25 24 22 21 20 21 21 22 24 25 25 23 21 20 20 21 21 22 24 24 23 23 24 26 27 27 27 27 27 27 27 28 28 29 29 28 27 27 26 26 26 25 23 23 22
29 31 32 29 27 26 26 26 26 26 27 27 28 28 27 27 27 27 27 26 26 27 27 26 27 29 32 33 34 33 28 24 24 26 26 26 26 25 25 25 25 24 25 24 20 21 24 24 25 24 22 20 19 19 21 22 23 24 26 26 25 24 25 26 27 26 26 26 26 27 27 28 28 28 27 26 26 27 27 27 26 25 24 23 22
29 31 32 29 26 26 26 25 25 26 27 27 28 27 27 27 27 27 27 26 26 26 26 26 27 30 32 31 32 32 28 23 22 23 22 21 22 22 23 24 23 23 26 26 18 15 18 18 17 17 17 17 18 20 22 23 25 26 26 25 24 23 23 24 25 26 26 26 27 27 28 29 29 28 27 25 25 26 27 26 25 24 24 24 23
28 30 30 28 26 25 25 25 26 27 27 27 27 26 26 27 27 27 26 25 25 25 25 25 27 29 30 29 31 30 26 21 20 21 20 21 21 22 23 24 23 23 26 24 15 5 5 7 10 12 14 17 19 21 23 24 24 24 24 23 23 23 23 24 24 25 26 27 27 28 28 28 28 27 27 27 27 27 26 26 25 25 24 24 24
27 28 27 26 25 24 25 25 26 26 26 26 26 26 26 26 26 26 25 24 24 24 23 23 25 27 27 29 29 27 23 21 21 21 20 21 21 23 26 27 24 22 22 21 16 10 5 1 3 5 7 11 14 18 21 23 24 25 24 24 23 24 24 24 25 26 26 26 26 27 28 27 27 28 28 29 29 28 27 26 26 25 24 24 23
27 27 26 25 24 24 24 24 25 25 26 26 26 25 25 25 25 25 24 23 23 23 22 22 24 25 26 27 27 25 22 22 21 20 21 22 22 23 25 26 24 21 20 19 16 12 9 6 5 4 4 4 7 11 16 19 22 24 25 25 25 25 26 27 28 29 29 29 28 28 28 28 28 29 29 30 30 29 27 26 26 25 24 23 23
25 25 24 24 24 24 24 24 24 25 25 25 25 25 24 24 24 23 22 22 23 23 22 22 23 24 24 25 25 23 22 22 22 21 22 23 23 23 25 25 23 22 20 19 16 13 11 9 9 9 9 8 8 10 12 14 17 20 22 24 25 25 26 27 28 29 31 32 31 30 30 30 30 30 30 31 31 29 27 26 25 25 24 23 22
23 23 22 22 22 23 23 24 25 25 24 24 24 24 24 24 24 22 21 21 22 22 22 22 22 23 23 24 24 23 22 22 22 21 22 24 25 25 25 23 21 21 20 18 16 14 13 12 12 13 13 13 12 12 13 13 15 16 18 21 22 23 24 25 27 29 31 33 33 33 32 30 30 31 31 31 30 29 28 26 26 25 24 23 22
22 22 21 20 21 21 22 23 24 24 24 23 23 23 23 23 23 22 22 22 22 21 21 22 23 23 23 24 23 23 22 22 22 22 23 24 25 25 25 23 22 21 20 19 18 16 15 14 14 14 15 14 14 14 14 13 14 15 16 18 20 21 23 25 26 28 30 32 33 34 34 32 30 30 30 30 29 29 28 26 25 24 24 23 23
21 20 19 20 20 20 21 23 23 23 23 23 23 23 23 23 23 23 23 23 23 23 23 23 23 24 24 23 23 23 22 22 23 24 24 24 24 25 24 24 24 22 21 21 20 19 18 16 15 15 14 14 15 15 14 14 14 14 15 16 18 20 23 25 26 28 29 30 31 32 33 32 32 31 30 30 29 28 27 25 24 23 22 22 22
19 19 19 20 20 20 21 22 22 22 23 23 23 23 23 23 23 23 23 23 23 23 23 24 24 24 25 25 24 24 23 24 25 25 25 26 26 25 25 25 25 24 24 23 23 21 20 18 17 16 16 16 16 15 15 14 14 14 15 15 17 19 22 25 27 28 29 30 30 30 31 32 31 31 30 29 28 27 26 25 24 23 22 21 20
18 18 18 19 19 20 21 21 21 22 22 22 22 22 22 23 23 24 24 24 24 24 24 24 24 25 25 25 25 25 25 25 25 26 26 26 26 26 26 26 26 26 26 26 25 24 23 22 21 20 19 18 17 17 16 15 15 16 16 17 18 20 22 24 27 28 29 30 30 30 31 31 31 29 28 28 27 26 26 25 23 22 21 20 19
17 17 18 18 19 20 21 21 22 23 23 22 22 22 22 22 23 24 24 24 24 24 24 24 24 24 25 25 25 25 25 25 26 27 28 27 27 28 28 29 28 28 29 29 29 29 29 29 27 26 24 23 21 21 20 20 20 20 20 20 21 22 24 26 27 28 29 29 29 29 30 30 30 29 28 27 26 26 25 24 23 22 21 20 19
Wind_Direction
27 24 20 15 13 15 16 19 20 21 23 24 24 24 23 21 19 16 15 13 11 10 8 5 3 360 356 350 341 331 323 316 311 305 298 291 285 280 277 273 269 268 268 265 262 258 256 255 254 252 251 249 247 246 244 242 241 239 238 235 228 222 216 210 211 208 205 213 216 213 212 209 208 211 214 215 219 219 218 219 221 223 224 224 225
19 17 16 13 9 7 6 6 7 7 9 10 11 12 10 10 10 8 7 7 7 7 6 4 2 360 358 355 350 343 335 328 321 313 305 297 291 286 281 276 272 270 269 266 264 262 259 256 255 254 252 250 248 247 245 243 242 241 240 240 236 230 223 216 213 204 189 199 205 206 206 206 206 210 213 215 217 216 215 216 219 222 225 225 226
15 13 10 7 4 1 357 355 353 355 357 358 360 360 357 357 357 356 356 357 357 357 357 357 356 356 356 354 351 348 343 337 330 321 311 302 294 288 283 278 275 273 270 268 266 264 261 258 256 254 252 251 250 248 246 244 242 241 240 239 238 236 230 224 218 209 192 190 196 196 198 202 207 210 213 216 217 216 214 215 217 220 222 223 226
10 10 5 2 0 355 353 351 347 345 346 345 347 349 348 346 345 344 344 344 345 346 345 346 346 346 348 349 350 349 346 342 336 327 317 307 298 291 286 281 277 274 271 270 269 266 263 260 258 256 253 251 250 248 246 245 242 241 240 239 237 236 233 229 226 219 202 189 194 197 197 200 205 209 209 211 215 216 215 214 215 218 220 222 225
4 4 358 355 353 349 347 347 345 343 339 336 337 339 340 339 337 337 336 333 331 333 335 336 337 337 338 340 341 342 342 340 336 331 324 314 305 297 291 286 281 277 274 273 271 268 264 261 260 258 254 251 250 248 245 244 243 242 241 239 237 235 233 230 229 225 212 197 192 196 198 198 201 205 206 205 207 212 215 216 216 217 219 221 224
357 358 353 349 347 344 342 341 341 340 335 332 331 331 333 334 333 334 335 331 328 328 328 328 329 330 330 330 331 332 333 332 330 328 325 320 312 304 297 292 286 280 277 275 274 271 266 263 261 258 254 252 251 250 246 243 243 242 241 241 239 236 233 230 228 226 220 207 194 190 194 197 196 199 204 205 202 203 207 211 216 218 218 220 222
347 349 347 344 342 340 338 336 335 335 332 327 324 324 326 328 328 329 331 330 328 327 325 324 323 323 323 323 323 323 323 323 322 322 321 318 313 308 302 297 291 285 280 277 276 273 269 265 263 258 255 254 253 252 249 245 243 241 240 240 239 236 234 232 228 224 221 211 196 191 192 195 196 198 201 203 203 202 199 198 206 214 217 219 221
338 339 337 335 334 332 331 330 329 329 327 323 320 319 320 321 322 323 324 325 325 324 322 320 319 318 318 317 316 316 315 314 314 314 313 312 309 306 303 299 295 290 286 283 278 275 271 268 265 262 258 257 256 254 251 248 245 243 241 239 236 235 234 233 229 224 221 212 200 195 190 189 193 193 192 192 196 201 201 199 202 206 210 216 220
326 330 328 326 325 324 322 321 322 322 322 320 319 318 317 317 318 318 319 320 320 319 318 317 315 314 313 312 310 309 306 305 307 307 305 304 303 301 299 297 294 291 289 287 283 278 274 270 267 265 263 261 259 257 254 251 247 245 244 239 234 232 233 232 229 223 220 215 204 194 187 187 189 184 182 189 194 199 202 204 207 207 207 211 217
311 315 316 316 315 315 315 314 314 314 314 314 314 314 314 314 314 314 315 316 315 315 314 313 311 310 309 308 305 302 299 297 299 299 297 296 296 295 294 292 291 290 288 286 285 282 277 273 269 267 266 264 262 260 257 254 250 248 246 241 235 230 228 228 227 223 220 217 207 194 188 193 193 188 189 194 196 198 198 199 203 203 201 204 215
297 300 302 304 305 306 307 308 308 307 307 307 307 308 309 309 309 309 311 312 312 313 312 309 308 306 305 303 300 297 294 294 294 292 289 289 290 289 288 288 287 286 284 282 282 282 280 278 274 270 266 264 263 261 259 256 253 250 248 244 239 235 229 224 224 222 220 220 215 203 198 203 201 196 196 195 193 195 196 196 197 194 190 193 205
291 292 294 296 298 299 301 303 303 301 301 301 301 302 303 303 303 304 305 307 309 310 310 308 306 304 302 299 296 293 291 291 290 286 281 281 283 283 282 282 282 281 279 278 278 278 279 279 277 273 268 264 262 261 259 258 256 253 251 247 243 241 236 230 226 222 219 222 222 214 210 211 205 200 199 195 192 194 197 198 198 194 192 195 199
297 296 295 295 296 297 299 300 299 298 297 297 297 298 297 296 297 298 299 301 304 305 306 305 304 303 301 298 295 292 290 289 286 281 276 276 277 278 277 276 277 277 275 273 273 274 274 275 275 274 271 267 263 260 258 258 257 255 254 250 246 244 241 237 234 229 224 222 223 223 221 216 209 206 203 197 191 191 194 198 199 197 196 201 205
301 300 299 297 298 298 297 296 296 295 296 296 296 295 294 294 294 294 294 296 299 300 301 301 300 299 298 296 295 292 290 289 286 279 274 273 273 274 274 274 274 273 271 269 269 269 269 269 269 271 272 269 265 261 257 256 255 253 252 250 248 246 243 240 237 234 230 225 224 228 228 223 218 215 209 201 197 197 197 198 199 200 203 208 211
302 300 298 298 299 299 298 297 297 297 298 298 296 294 295 296 296 295 294 294 295 295 295 295 295 294 293 292 292 290 288 287 286 282 275 272 271 271 272 272 271 270 269 267 266 265 266 265 265 265 267 267 266 263 258 255 253 251 249 247 247 246 244 241 238 236 233 230 228 230 231 229 226 223 214 207 207 207 206 205 204 203 204 206 206
301 299 298 299 301 301 301 301 301 300 300 299 298 297 298 298 297 296 295 293 292 291 290 289 289 289 289 288 287 285 284 284 284 283 280 276 272 271 271 270 269 268 267 267 265 264 264 263 261 262 262 263 264 264 260 255 252 249 247 245 245 244 244 244 242 238 236 235 234 234 233 231 231 229 222 215 211 210 208 208 205 200 195 189 184
299 299 299 301 303 303 304 304 303 303 303 301 300 299 299 298 297 296 294 292 290 289 287 287 286 285 285 285 282 280 280 281 281 281 281 280 277 274 271 268 266 265 265 266 265 264 264 262 260 259 259 259 261 262 261 256 250 247 246 245 243 243 245 245 243 241 239 238 238 238 237 235 233 232 229 223 216 209 202 200 200 193 186 181 180
302 303 303 304 305 305 306 306 304 303 302 300 300 299 298 298 297 296 295 292 289 288 287 286 284 283 281 280 279 277 277 278 278 278 279 279 279 278 275 271 267 263 263 264 264 263 263 263 260 258 257 258 258 259 258 254 248 245 245 244 242 241 244 244 241 239 239 238 238 239 238 236 233 232 230 226 220 210 204 203 200 190 187 194 188
308 308 306 307 307 307 306 305 304 302 301 300 300 300 299 299 298 297 295 292 290 289 287 285 283 281 280 278 277 276 276 276 276 276 277 279 279 279 278 275 271 267 264 263 262 261 260 260 260 258 257 258 258 257 256 251 246 244 244 242 240 242 243 241 237 234 234 233 234 235 235 234 231 230 228 224 219 213 210 209 202 193 194 196 182
311 309 309 309 308 307 306 305 303 302 301 301 300 299 299 298 297 296 295 293 291 289 287 286 284 283 281 280 278 277 276 276 277 277 277 277 277 277 276 275 272 269 267 264 262 261 258 257 257 257 257 258 257 256 255 251 245 243 242 238 237 244 245 239 231 231 229 228 229 230 230 229 227 226 224 220 216 213 212 210 205 202 200 194 183
312 311 310 310 308 308 308 306 304 303 302 301 300 298 297 297 296 296 295 294 292 291 289 289 287 285 284 282 280 278 277 277 278 278 277 276 275 275 273 272 270 269 268 265 262 260 257 255 254 254 255 257 257 255 253 251 247 242 240 238 240 245 244 233 229 230 226 224 225 226 225 224 222 220 219 216 214 211 210 209 208 208 204 197 191
314 313 311 310 310 310 309 307 306 304 303 302 300 297 297 297 295 295 295 294 293 292 291 291 288 286 285 284 282 282 282 281 280 280 279 278 277 275 272 271 269 267 265 263 260 257 256 255 253 253 252 254 256 255 251 249 247 242 240 242 245 246 241 232 229 226 221 220 221 220 220 219 217 217 216 213 213 211 209 209 210 209 208 205 202
315 313 311 311 311 311 310 309 308 306 305 303 300 297 297 297 296 296 295 295 294 292 292 292 289 287 286 287 286 285 285 285 284 283 283 282 281 279 275 273 270 266 262 260 258 256 255 254 253 252 251 252 254 254 250 247 245 242 241 243 245 244 240 233 227 221 217 217 216 215 217 216 214 215 214 212 212 210 207 207 208 208 208 209 209
314 312 312 312 312 312 311 310 309 308 306 304 300 297 297 297 296 296 295 294 293 291 291 291 290 288 287 288 288 287 287 288 287 286 286 287 286 284 281 278 274 268 264 260 258 256 255 253 253 252 251 251 253 253 251 247 245 243 240 241 242 240 236 229 225 221 217 216 215 215 216 215 213 214 214 212 210 207 204 204 205 205 205 207 208
314 313 313 312 312 313 311 310 309 307 306 304 300 298 298 297 296 296 295 293 290 288 289 289 288 287 287 288 289 289 289 290 291 290 292 292 293 292 291 288 283 277 269 263 259 257 254 252 252 252 252 252 253 253 251 247 245 242 240 238 237 234 230 226 223 219 217 216 217 218 218 215 214 215 213 208 204 200 197 196 195 196 197 198 197
314 313 312 312 312 312 310 309 308 307 306 304 301 299 299 298 296 295 294 291 287 286 286 287 286 285 284 285 287 288 289 290 291 292 293 294 294 295 295 293 290 287 282 274 267 263 260 256 253 251 251 251 249 249 249 247 244 241 240 237 234 230 227 224 219 216 217 218 218 218 218 216 213 211 207 200 196 192 189 185 180 180 183 180 173
313 312 312 312 311 311 309 307 308 308 308 307 304 301 299 296 294 292 290 288 287 286 285 285 284 282 281 281 283 283 283 284 285 287 288 288 289 290 291 291 292 292 289 284 275 268 265 263 258 254 251 251 250 249 248 247 244 241 238 236 232 228 226 223 219 216 217 218 218 218 217 211 204 201 197 192 190 189 185 181 176 173 174 172 163
312 311 311 311 310 309 308 308 308 307 306 305 302 299 297 294 291 287 286 285 284 283 281 280 278 277 277 279 280 280 279 279 280 281 281 281 282 283 283 285 288 289 289 287 283 276 267 263 261 257 254 252 251 249 245 242 238 236 234 232 229 227 226 224 220 217 217 216 215 213 209 201 195 192 189 187 186 185 182 180 177 174 172 168 161
311 310 310 309 308 309 308 307 306 304 303 302 299 296 294 292 289 287 285 283 281 281 281 280 279 278 278 278 279 280 279 279 279 279 280 280 281 280 279 278 280 283 285 288 290 288 278 265 257 253 251 248 246 243 240 236 233 231 230 229 227 225 223 221 217 214 213 211 207 203 198 193 190 186 183 183 183 182 180 179 177 173 172 172 169
311 309 309 308 308 309 308 305 303 302 301 300 298 297 294 291 289 289 289 288 286 286 286 286 287 288 287 286 285 285 287 289 290 290 289 289 287 286 284 282 281 281 283 285 287 287 282 271 257 246 241 239 239 237 234 231 228 226 226 226 225 222 220 218 215 213 210 205 201 197 191 187 184 181 180 179 178 177 178 179 176 173 173 175 174
308 307 307 307 307 307 305 302 301 300 299 299 299 298 297 296 294 292 290 291 292 292 291 291 291 292 293 292 292 292 293 295 296 296 294 293 292 289 287 286 284 283 282 284 284 281 276 272 263 250 239 231 231 234 234 230 228 226 223 223 223 221 219 216 213 209 205 200 197 192 186 183 180 178 178 176 172 171 174 175 175 175 176 177 175
304 304 305 306 306 304 301 300 301 300 300 300 300 299 299 299 298 296 294 293 294 294 294 294 294 295 295 295 296 296 297 297 297 297 296 294 292 291 288 286 284 282 281 280 279 277 274 272 269 262 248 232 225 230 235 235 232 228 224 222 221 219 217 215 211 206 200 196 193 187 182 179 177 175 174 171 168 168 170 172 174 176 177 178 177
303 303 304 304 303 301 299 300 300 300 300 300 300 300 299 299 300 300 300 298 296 295 295 296 296 296 297 296 297 297 297 298 298 297 296 295 292 290 287 284 282 281 279 275 272 272 275 275 273 270 261 247 233 229 232 235 233 228 225 223 220 218 217 213 208 202 197 193 188 182 177 175 172 170 170 171 170 171 172 174 176 177 177 177 177
304 303 302 300 298 297 298 299 299 299 299 299 298 298 298 297 298 299 301 302 302 300 300 300 299 299 298 298 298 298 298 299 299 299 298 297 294 292 289 286 283 279 275 271 267 267 270 271 270 269 265 254 239 227 227 231 230 226 225 225 222 217 212 206 199 195 191 188 183 178 174 172 171 169 169 171 173 175 176 176 177 177 178 178 174
306 305 302 298 295 295 297 299 299 299 299 298 297 297 296 296 296 295 296 299 300 301 302 303 303 303 301 300 299 300 300 300 300 300 300 299 296 295 294 289 281 272 266 264 262 260 262 264 265 266 264 255 240 226 223 227 228 227 224 222 217 207 198 193 190 188 185 180 177 175 173 171 172 173 172 172 174 176 178 178 179 179 179 177 172
308 305 301 298 296 296 298 300 300 299 299 298 297 297 295 295 295 294 294 295 295 296 299 300 302 304 304 302 302 302 302 302 301 301 300 299 298 298 296 288 274 262 253 251 251 250 252 255 257 262 263 255 239 227 224 225 227 226 222 215 205 193 186 184 182 180 178 176 175 174 173 174 176 175 173 173 176 177 177 177 177 178 177 174 170
309 305 300 299 299 299 301 302 302 301 301 300 299 298 297 296 295 295 295 294 294 295 297 299 302 304 305 306 307 307 305 304 304 302 300 300 299 296 292 286 279 270 259 251 246 243 245 249 253 259 261 248 228 218 219 220 220 218 212 203 195 187 183 181 179 177 176 176 176 177 177 177 177 175 172 170 172 173 174 173 172 172 172 171 168
310 305 301 300 300 301 302 304 304 304 303 302 301 300 299 298 297 297 296 295 295 296 297 299 302 302 302 305 309 311 308 307 307 306 305 306 306 301 297 295 293 289 279 263 248 241 243 247 252 258 255 238 219 213 216 215 211 205 197 191 189 185 181 179 178 177 177 177 177 178 177 174 173 172 170 167 167 169 170 170 169 167 166 166 166
312 309 305 302 302 303 304 305 305 305 304 303 303 303 302 300 300 299 297 297 297 297 298 299 300 299 301 304 308 310 309 306 305 306 306 306 306 306 307 307 305 302 297 283 258 241 240 246 253 255 247 228 214 212 211 206 199 193 187 182 179 177 175 175 175 176 176 174 173 173 171 169 169 169 169 167 167 167 167 168 169 167 164 164 165
314 310 308 306 305 306 308 308 306 305 305 305 306 306 305 304 303 302 301 300 299 299 300 299 299 301 303 305 306 307 305 300 299 300 299 300 306 311 314 315 310 306 306 299 273 244 236 241 246 245 234 218 209 207 203 197 190 186 183 179 175 173 174 174 173 172 171 169 167 167 166 165 165 165 165 165 165 165 164 164 166 165 163 161 159
315 310 307 307 308 310 312 311 309 308 308 308 308 308 308 308 308 307 306 305 304 304 305 304 304 306 308 309 312 316 317 313 310 310 309 313 319 321 320 319 318 319 323 321 298 252 235 237 236 225 213 208 206 201 195 190 186 182 178 174 171 168 168 168 168 167 166 164 163 163 163 164 163 162 160 159 159 160 160 160 160 159 157 156 154
317 311 307 309 312 314 314 312 313 313 313 312 312 312 312 312 313 312 311 311 312 313 313 313 314 316 318 321 327 331 332 329 327 327 327 329 330 329 329 330 330 333 340 346 346 319 240 225 216 207 203 204 201 194 188 184 180 174 169 166 162 160 159 161 162 163 162 161 161 161 161 161 160 157 155 154 154 154 155 155 155 153 152 153 154
318 312 309 310 314 315 313 313 316 317 317 316 316 316 316 317 317 317 316 317 318 320 320 320 321 323 325 329 333 336 336 335 334 334 334 335 335 336 340 346 350 352 356 3 9 10 12 82 171 186 193 196 194 189 184 180 175 169 164 160 158 157 156 157 158 159 158 157 157 157 157 155 154 152 150 151 151 151 151 151 152 152 152 152 153
320 314 313 314 316 316 316 318 320 320 320 320 319 320 321 322 322 321 321 322 324 325 325 325 327 328 330 332 336 339 339 339 338 338 338 339 339 340 346 356 4 8 12 18 23 25 31 50 70 90 118 148 170 174 173 172 171 168 163 159 157 157 158 159 160 161 160 156 153 153 152 151 151 150 149 150 150 150 149 150 151 150 150 150 151
322 317 318 320 320 320 322 325 326 325 325 324 324 325 327 327 326 326 327 328 329 330 329 330 331 332 331 333 336 338 339 340 340 340 341 342 344 346 352 1 10 16 20 26 31 36 45 58 69 78 85 93 114 136 148 155 160 162 162 161 160 160 161 162 162 162 161 157 153 151 151 151 151 150 149 150 151 150 149 150 149 147 147 148 149
325 321 322 324 324 325 328 331 331 330 330 330 328 328 330 331 332 332 331 331 332 332 332 333 334 334 334 335 336 338 340 343 345 346 347 349 352 355 359 6 16 24 29 33 39 46 54 64 74 81 85 91 103 116 126 136 146 153 157 160 160 159 160 161 161 161 160 157 154 152 151 150 151 151 150 150 150 148 147 147 147 147 148 149 149
329 327 328 329 330 331 333 335 336 334 333 333 333 333 333 335 335 335 336 337 337 337 338 339 340 340 341 342 343 346 350 353 355 355 355 358 2 5 10 17 24 29 34 40 47 53 61 70 78 85 90 95 103 111 117 126 137 146 152 157 160 159 159 159 159 158 157 156 154 153 151 149 147 148 147 146 145 144 144 146 148 149 149 150 150
333 334 336 338 338 338 337 338 338 336 335 337 337 338 338 339 339 340 341 343 345 346 348 349 351 351 351 351 352 355 359 4 7 7 7 9 11 15 20 26 31 35 40 45 48 53 60 70 78 86 93 98 102 108 114 121 129 138 146 153 158 159 159 158 156 153 153 153 152 151 149 147 145 145 144 144 143 143 143 144 145 147 147 149 152
338 342 345 345 346 345 343 342 340 338 338 339 340 341 343 344 344 346 347 348 351 354 356 357 359 360 359 359 359 1 6 11 14 15 15 15 17 21 26 31 35 39 42 45 46 49 56 64 72 81 88 94 97 101 108 114 121 128 135 143 150 155 157 156 154 152 151 150 149 147 146 143 141 141 142 143 143 143 143 143 144 145 145 148 152
344 349 351 351 350 350 350 349 348 345 344 344 343 343 346 347 349 351 353 353 356 359 1 3 5 6 7 7 7 8 12 17 20 21 21 21 23 27 32 36 39 43 46 48 51 55 60 65 70 75 80 85 88 93 98 103 108 115 123 130 138 144 146 145 145 148 148 147 146 145 143 141 139 139 140 141 142 142 142 143 144 146 146 147 151
349 354 356 356 355 356 356 355 354 351 351 350 347 346 347 349 352 355 358 359 0 1 3 6 8 11 13 15 16 17 20 24 26 28 30 32 33 36 39 43 46 49 52 54 57 59 61 64 67 70 73 77 81 87 93 98 103 110 117 123 128 133 135 136 139 144 147 147 145 144 142 140 139 138 139 140 141 142 143 144 146 148 149 151 152